Previsão horária em Plodopitomnik

Hoje, 27 Fevereiro, Sábado

Tempo Temperatura Precipitação Vento Pressão Humidade
00:00 +6°C° 0 mm 1 m/s 769 mmHg 70%
01:00 +6°C° 0 mm 1 m/s 768 mmHg 69%
02:00 +6°C° 0 mm 1 m/s 768 mmHg 69%
03:00 +7°C° 0 mm 1 m/s 768 mmHg 66%
04:00 +7°C° 0 mm 1 m/s 768 mmHg 66%
05:00 +7°C° 0 mm 1 m/s 768 mmHg 65%
06:00 +7°C° 0 mm 1 m/s 768 mmHg 65%
07:00 +8°C° 0 mm 1 m/s 767 mmHg 64%
08:00 +9°C° 0 mm 1 m/s 767 mmHg 62%
09:00 +10°C° 0 mm 1 m/s 767 mmHg 61%
10:00 +11°C° 0 mm 1 m/s 766 mmHg 58%
11:00 +10°C° 0 mm 2 m/s 766 mmHg 56%
12:00 +12°C° 0 mm 2 m/s 765 mmHg 54%
13:00 +10°C° 0 mm 2 m/s 765 mmHg 55%
14:00 +10°C° 0 mm 2 m/s 764 mmHg 56%
15:00 +10°C° 0 mm 2 m/s 764 mmHg 57%
16:00 +10°C° 0 mm 1 m/s 764 mmHg 61%
17:00 +10°C° 0 mm 1 m/s 764 mmHg 66%
18:00 +9°C° 0 mm 1 m/s 764 mmHg 70%
19:00 +9°C° 0 mm 1 m/s 764 mmHg 71%
20:00 +8°C° 0 mm 1 m/s 764 mmHg 71%
21:00 +7°C° 0 mm 2 m/s 764 mmHg 72%
22:00 +7°C° 0 mm 2 m/s 764 mmHg 72%
23:00 +7°C° 0 mm 2 m/s 763 mmHg 72%

Amanhã, 28 Fevereiro, Domingo

Tempo Temperatura Precipitação Vento Pressão Humidade
00:00 +7°C° 0 mm 2 m/s 763 mmHg 72%
01:00 +8°C° 0 mm 1 m/s 763 mmHg 72%
02:00 +8°C° 0 mm 1 m/s 763 mmHg 72%
03:00 +7°C° 0 mm 1 m/s 762 mmHg 71%
04:00 +7°C° 0 mm 1 m/s 763 mmHg 70%
05:00 +6°C° 0 mm 2 m/s 763 mmHg 69%
06:00 +7°C° 0 mm 2 m/s 763 mmHg 68%
07:00 +7°C° 0 mm 3 m/s 763 mmHg 70%
08:00 +8°C° 0 mm 3 m/s 763 mmHg 71%
09:00 +7°C° 0 mm 4 m/s 763 mmHg 73%
10:00 +7°C° 0 mm 4 m/s 763 mmHg 76%
11:00 +8°C° 0 mm 4 m/s 763 mmHg 78%
12:00 +8°C° 0 mm 4 m/s 762 mmHg 81%
13:00 +8°C° 0 mm 3 m/s 762 mmHg 83%
14:00 +8°C° 0 mm 3 m/s 762 mmHg 85%
15:00 +7°C° 0 mm 2 m/s 762 mmHg 88%
16:00 +7°C° 0.1 mm 2 m/s 763 mmHg 90%
17:00 +7°C° 0.1 mm 2 m/s 763 mmHg 91%
18:00 +7°C° 0.1 mm 2 m/s 763 mmHg 93%
19:00 +7°C° 0.3 mm 1 m/s 764 mmHg 94%
20:00 +7°C° 0.3 mm 1 m/s 764 mmHg 94%
21:00 +7°C° 0.3 mm 1 m/s 765 mmHg 95%
22:00 +7°C° 0.4 mm 1 m/s 765 mmHg 95%
23:00 +7°C° 0.4 mm 1 m/s 765 mmHg 96%

Depois de amanhã, 1 Março, Segunda-feira

Tempo Temperatura Precipitação Vento Pressão Humidade
00:00 +6°C° 0.4 mm 0 m/s 765 mmHg 97%
01:00 +7°C° 0.3 mm 1 m/s 765 mmHg 97%
02:00 +6°C° 0.3 mm 1 m/s 765 mmHg 97%
03:00 +5°C° 0.3 mm 2 m/s 766 mmHg 98%
04:00 +5°C° 0.5 mm 2 m/s 766 mmHg 98%
05:00 +5°C° 0.5 mm 2 m/s 766 mmHg 98%
06:00 +5°C° 0.5 mm 2 m/s 766 mmHg 97%
07:00 +5°C° 0.6 mm 2 m/s 767 mmHg 97%
08:00 +4°C° 0.6 mm 3 m/s 767 mmHg 97%
09:00 +4°C° 0.6 mm 3 m/s 768 mmHg 97%
10:00 +4°C° 0.6 mm 3 m/s 768 mmHg 97%
11:00 +3°C° 0.6 mm 3 m/s 768 mmHg 97%
12:00 +3°C° 0.6 mm 3 m/s 768 mmHg 96%
13:00 +3°C° 0.3 mm 3 m/s 769 mmHg 96%
14:00 +3°C° 0.3 mm 3 m/s 769 mmHg 96%
15:00 +3°C° 0.3 mm 3 m/s 769 mmHg 96%
16:00 +3°C° 0.1 mm 3 m/s 770 mmHg 96%
17:00 +4°C° 0.1 mm 2 m/s 770 mmHg 95%
18:00 +4°C° 0.1 mm 2 m/s 771 mmHg 94%
19:00 +5°C° 0 mm 1 m/s 771 mmHg 92%
20:00 +4°C° 0 mm 1 m/s 772 mmHg 91%
21:00 +4°C° 0 mm 1 m/s 772 mmHg 89%
22:00 +4°C° 0 mm 1 m/s 772 mmHg 89%
23:00 +3°C° 0 mm 0 m/s 772 mmHg 89%

2 Março, Terça-feira

Tempo Temperatura Precipitação Vento Pressão Humidade
00:00 +2°C° 0 mm 0 m/s 772 mmHg 89%
01:00 +2°C° 0 mm 0 m/s 772 mmHg 88%
02:00 +2°C° 0 mm 0 m/s 772 mmHg 87%
03:00 +2°C° 0 mm 0 m/s 772 mmHg 86%
04:00 +2°C° 0 mm 0 m/s 772 mmHg 86%
05:00 +2°C° 0 mm 0 m/s 772 mmHg 86%
06:00 +2°C° 0 mm 0 m/s 773 mmHg 85%
07:00 +3°C° 0 mm 0 m/s 773 mmHg 84%
08:00 +3°C° 0 mm 0 m/s 773 mmHg 83%
09:00 +4°C° 0 mm 0 m/s 773 mmHg 82%
10:00 +5°C° 0 mm 1 m/s 773 mmHg 82%
11:00 +6°C° 0 mm 1 m/s 772 mmHg 82%
12:00 +5°C° 0 mm 2 m/s 772 mmHg 82%
13:00 +5°C° 0 mm 2 m/s 771 mmHg 83%
14:00 +5°C° 0 mm 2 m/s 771 mmHg 83%
15:00 +4°C° 0 mm 3 m/s 770 mmHg 84%
16:00 +4°C° 0 mm 3 m/s 770 mmHg 85%
17:00 +4°C° 0 mm 3 m/s 770 mmHg 86%
18:00 +4°C° 0 mm 3 m/s 770 mmHg 87%
19:00 +3°C° 0 mm 3 m/s 770 mmHg 87%
20:00 +4°C° 0 mm 2 m/s 770 mmHg 86%
21:00 +4°C° 0 mm 2 m/s 770 mmHg 85%
22:00 +4°C° 0 mm 2 m/s 769 mmHg 83%
23:00 +4°C° 0 mm 2 m/s 769 mmHg 81%

3 Março, Quarta-feira

Tempo Temperatura Precipitação Vento Pressão Humidade
00:00 +3°C° 0 mm 2 m/s 769 mmHg 78%
01:00 +4°C° 0 mm 2 m/s 768 mmHg 76%
02:00 +5°C° 0 mm 1 m/s 768 mmHg 74%
03:00 +5°C° 0 mm 1 m/s 767 mmHg 71%
04:00 +4°C° 0 mm 2 m/s 767 mmHg 71%
05:00 +4°C° 0 mm 2 m/s 767 mmHg 71%
06:00 +4°C° 0 mm 2 m/s 767 mmHg 71%
07:00 +4°C° 0 mm 2 m/s 767 mmHg 68%
08:00 +4°C° 0 mm 3 m/s 767 mmHg 66%
09:00 +5°C° 0 mm 3 m/s 767 mmHg 63%
10:00 +5°C° 0 mm 3 m/s 767 mmHg 64%
11:00 +7°C° 0 mm 2 m/s 766 mmHg 65%
12:00 +7°C° 0 mm 2 m/s 766 mmHg 67%
13:00 +7°C° 0 mm 3 m/s 766 mmHg 67%
14:00 +6°C° 0 mm 4 m/s 766 mmHg 67%
15:00 +6°C° 0 mm 5 m/s 766 mmHg 68%
16:00 +6°C° 0.1 mm 5 m/s 767 mmHg 74%
17:00 +5°C° 0.1 mm 5 m/s 767 mmHg 79%
18:00 +3°C° 0.1 mm 5 m/s 767 mmHg 85%
19:00 +3°C° 0.1 mm 5 m/s 768 mmHg 85%
20:00 +4°C° 0.1 mm 4 m/s 769 mmHg 85%
21:00 +4°C° 0.1 mm 3 m/s 769 mmHg 85%
22:00 +3°C° 0.2 mm 4 m/s 769 mmHg 88%
23:00 +2°C° 0.2 mm 5 m/s 770 mmHg 91%

4 Março, Quinta-feira

Tempo Temperatura Precipitação Vento Pressão Humidade
00:00 +1°C° 0.2 mm 5 m/s 770 mmHg 93%
01:00 +2°C° 0.1 mm 5 m/s 770 mmHg 89%
02:00 +2°C° 0.1 mm 5 m/s 770 mmHg 85%
03:00 +2°C° 0.1 mm 5 m/s 770 mmHg 81%
04:00 +1°C° 0 mm 5 m/s 770 mmHg 81%
05:00 +1°C° 0 mm 5 m/s 771 mmHg 81%
06:00 +1°C° 0 mm 5 m/s 771 mmHg 80%
07:00 +2°C° 0 mm 5 m/s 771 mmHg 77%
08:00 +2°C° 0 mm 5 m/s 772 mmHg 73%
09:00 +3°C° 0 mm 5 m/s 772 mmHg 69%
10:00 +4°C° 0 mm 4 m/s 772 mmHg 69%
11:00 +5°C° 0 mm 3 m/s 772 mmHg 69%
12:00 +5°C° 0 mm 3 m/s 772 mmHg 69%
13:00 +5°C° 0 mm 3 m/s 771 mmHg 69%
14:00 +5°C° 0 mm 3 m/s 771 mmHg 69%
15:00 +6°C° 0 mm 2 m/s 771 mmHg 70%
16:00 +5°C° 0 mm 3 m/s 771 mmHg 72%
17:00 +4°C° 0 mm 3 m/s 771 mmHg 75%
18:00 +4°C° 0 mm 4 m/s 771 mmHg 77%
19:00 +3°C° 0 mm 4 m/s 772 mmHg 78%
20:00 +2°C° 0 mm 5 m/s 772 mmHg 79%
21:00 +2°C° 0 mm 5 m/s 772 mmHg 79%
22:00 +2°C° 0 mm 5 m/s 772 mmHg 79%
23:00 +2°C° 0 mm 5 m/s 771 mmHg 78%
Mostrar mais

Necessitamos do seu Consentimento

A Meteoprog e os seus Fornecedores de Serviços podem armazenar e aceder a dados pessoais como cookies, identificadores do dispositivo ou outras tecnologias semelhantes existentes no seu dispositivo e processar estes dados para personalizar conteúdos e anúncios, assim como funcionalidades nas redes sociais e análise de tráfego.

  • Armazenar e/ou aceder a informações no seu dispositivo

    Os cookies, identificadores do dispositivo ou outras informações podem ser armazenados ou acedidos no seu dispositivo, para os fins acima indicados.

  • Anúncios e conteúdos personalizados, medição de anúncios e conteúdos, dados sobre o público-alvo e desenvolvimento de produtos

    Os anúncios e os conteúdos podem ser personalizados com base num perfil. Podem ser adicionados dados adicionais para uma maior personalização dos anúncios e dos conteúdos. A eficácia dos anúncios e dos conteúdos pode ser medida. Podem ser obtidas informações sobre o público que visualizou os anúncios e os conteúdos. Estes dados podem ser usados para desenvolver ou melhorar sistemas, softwares ou a experiência do utilizador.

Ao clicar em "Eu concordo”, permitirá o uso de cookies, identificadores do dispositivo e web beacons mencionados ou outras tecnologias semelhantes. As configurações do navegador do seu dispositivo podem ser alteradas.

Para certos fins, podem ser invocados interesses legítimos ao invés de consentimento. Pode ler mais informação sobre este assunto na nossa Política de Privacidade e Cookies.